Theta_e
332 330 322 309 299 297 296 297 296 299 305 310 313 308 309 310 306 301 329 332 333 331 331 331 334 332 332 331 331 330 330 330 334 334 335 333 334 335 335 337 333 332 336 336 335 335 337 338 337
330 329 312 303 297 292 295 298 296 300 311 313 313 311 309 307 320 324 327 332 331 330 329 329 334 332 331 331 330 330 330 330 331 333 333 334 333 335 333 333 332 332 335 333 333 335 336 336 335
329 328 305 299 295 293 295 297 303 307 312 311 311 313 311 313 322 324 330 330 330 328 328 329 333 332 331 330 330 329 329 328 328 329 331 333 333 333 332 332 331 332 334 332 334 334 335 335 333
322 316 304 296 293 295 297 302 306 309 311 315 313 309 315 320 320 326 330 329 327 327 327 331 332 331 330 330 328 328 327 327 327 326 327 330 331 333 331 329 331 332 332 329 331 333 332 333 332
319 313 299 293 293 298 302 305 307 308 308 310 312 308 311 321 327 328 328 327 325 325 326 327 332 331 330 328 327 327 326 326 325 326 326 327 328 331 330 328 331 330 329 329 330 330 330 330 329
311 311 298 292 292 305 305 309 310 310 311 311 311 310 312 324 325 326 328 327 327 325 323 324 326 329 328 327 326 325 324 323 323 323 324 325 326 326 329 328 330 330 328 327 327 327 328 328 327
309 306 299 297 295 303 307 309 310 310 310 310 315 309 316 322 326 326 326 326 325 322 320 320 321 323 325 325 324 322 321 321 322 322 321 321 321 322 324 327 328 329 326 325 325 326 325 324 324
309 308 301 297 296 300 307 309 312 311 309 317 317 308 312 321 327 326 325 323 322 319 316 316 316 317 317 317 321 321 321 320 319 319 319 319 318 319 320 322 327 327 325 325 324 323 321 320 320
313 303 299 298 296 298 307 308 312 315 314 315 318 315 318 325 326 323 321 320 319 316 314 314 313 313 314 314 314 317 319 319 318 316 317 314 310 311 312 318 324 325 325 324 322 320 319 314 313
309 303 300 298 296 298 304 309 311 311 311 313 315 318 322 323 322 320 319 315 313 313 314 313 314 312 312 315 312 311 312 311 311 311 311 311 310 310 312 312 318 321 321 322 320 316 313 308 303
308 302 303 300 301 302 305 309 311 310 306 313 313 315 319 319 318 320 319 316 314 314 314 315 315 313 311 312 311 310 310 310 310 310 310 310 310 309 309 309 310 313 315 318 316 308 303 301 301
304 304 303 305 305 304 307 309 307 307 307 313 318 318 317 317 317 319 318 315 315 313 313 315 315 313 311 312 311 310 310 309 309 310 310 309 308 308 308 308 309 310 314 316 312 308 304 300 299
301 303 305 307 305 302 307 306 306 305 313 318 319 318 316 316 316 320 319 318 316 313 313 313 315 313 312 311 311 310 310 310 310 310 311 310 309 308 309 308 308 308 310 315 311 307 304 299 297
302 303 304 307 305 303 303 302 304 305 312 315 317 315 315 317 317 316 317 318 317 317 316 313 314 315 314 311 311 310 309 310 310 310 310 311 310 309 308 307 308 308 310 312 309 307 304 301 297
303 301 303 304 304 301 301 301 298 306 312 313 313 313 315 317 320 317 318 319 321 319 317 313 313 315 314 313 312 310 311 311 310 311 313 312 312 311 308 307 307 307 309 310 309 305 303 301 299
301 301 298 301 303 302 300 295 302 308 310 309 310 311 313 316 320 320 320 320 322 319 316 315 315 316 316 316 314 313 313 313 313 314 313 313 313 312 309 307 306 307 308 307 304 302 299 297 297
299 294 296 297 302 301 298 293 298 305 308 307 308 310 312 313 315 316 319 322 321 320 317 315 315 316 316 316 316 314 314 313 314 314 314 314 313 312 310 306 306 306 306 306 305 302 297 296 296
294 294 297 295 299 300 298 295 296 297 304 304 305 307 309 311 313 312 319 322 322 320 318 316 315 315 315 314 313 312 312 313 314 313 313 313 312 311 307 306 305 306 305 305 305 303 303 299 299
299 299 296 296 301 299 298 295 294 296 294 295 296 302 305 303 302 305 316 320 321 318 316 315 314 314 314 312 311 311 310 311 312 312 311 310 310 307 306 305 305 305 304 306 306 306 305 304 296
301 298 295 297 301 299 295 293 296 297 295 294 296 297 299 299 301 303 304 306 308 310 313 317 316 315 312 313 313 313 312 311 311 310 310 311 310 309 308 307 306 306 306 306 306 305 302 299 296
299 297 294 294 297 297 294 293 293 294 295 294 294 296 298 299 300 300 301 301 302 303 305 307 308 312 312 312 311 311 309 307 306 307 310 311 310 310 308 307 305 305 306 305 306 305 303 302 299
295 299 299 295 294 288 295 287 291 291 291 293 295 295 297 298 300 300 300 300 301 300 302 304 305 306 307 309 309 308 307 306 308 306 307 306 307 306 305 305 304 303 303 302 305 305 303 303 301
295 300 298 297 294 291 290 287 290 291 288 291 294 295 296 298 298 298 299 300 300 299 299 300 302 302 303 304 304 303 303 303 303 302 301 301 302 303 303 302 301 301 301 302 302 303 303 304 302
299 294 293 291 291 285 289 289 288 286 290 290 294 295 296 296 297 298 299 299 298 297 297 297 298 298 299 299 300 299 298 298 297 297 297 297 298 299 299 300 300 299 299 300 300 301 300 301 302
296 293 283 282 283 283 287 286 292 290 290 292 294 294 295 295 295 295 295 295 295 295 295 295 295 294 294 294 295 295 295 294 294 293 294 293 294 294 295 296 296 297 298 299 299 299 299 300 300
291 290 285 280 279 280 286 283 290 290 293 295 296 295 294 292 293 293 294 293 293 293 293 292 291 291 291 291 291 292 292 292 291 291 291 291 291 292 294 294 294 294 295 296 297 297 298 299 299
288 287 289 282 280 278 280 281 286 288 290 292 293 294 293 291 291 292 292 292 291 291 291 291 289 289 289 289 289 289 288 288 288 288 289 289 290 291 291 291 291 292 293 293 294 295 295 296 297
291 292 283 284 277 276 278 278 281 284 288 291 292 292 291 291 292 292 292 292 291 290 288 287 287 287 287 287 287 287 287 287 288 287 286 287 287 289 289 289 289 289 290 291 291 292 292 293 294
287 286 287 286 284 280 278 279 285 288 290 291 292 293 291 291 292 292 293 291 289 287 286 286 286 286 285 286 285 285 286 286 286 285 285 285 286 286 287 287 287 288 288 288 288 289 289 289 290
290 287 287 282 279 281 279 278 287 289 292 294 293 292 291 292 291 291 291 289 286 285 285 285 285 285 285 285 285 285 285 284 283 283 284 285 285 286 286 286 287 286 287 287 287 287 287 287 287
Wind_Speed
4 6 2 3 2 3 2 3 2 4 2 3 3 3 8 5 2 3 6 10 14 8 6 6 8 8 8 8 8 8 8 8 8 8 8 7 8 9 12 10 11 9 9 13 12 11 12 13 14
5 5 4 2 3 1 4 2 4 2 6 7 6 4 7 4 2 9 7 12 12 10 6 6 8 8 7 8 8 8 8 7 8 9 8 10 8 9 10 10 11 9 12 12 10 11 12 12 14
5 2 2 4 3 4 4 3 5 3 6 1 5 5 4 4 8 5 10 13 10 9 5 6 8 8 8 8 8 7 8 7 6 7 7 10 10 8 10 10 10 10 12 13 11 12 13 14 14
2 1 2 3 4 5 3 6 5 6 3 6 5 8 4 3 8 8 14 12 10 7 5 7 8 8 8 7 7 7 7 7 6 5 5 8 10 10 10 9 7 11 13 10 9 12 13 15 13
2 1 0 2 3 2 0 5 3 3 3 3 1 4 4 3 12 17 15 13 13 6 5 6 8 9 8 7 7 7 6 6 6 6 6 6 8 11 9 8 7 10 10 10 10 12 11 12 12
2 1 1 3 2 2 2 2 4 3 2 4 6 5 3 8 15 11 14 11 10 11 6 6 7 7 8 7 7 6 5 6 6 7 8 9 8 9 10 8 7 11 10 9 8 9 10 10 11
5 3 4 4 4 2 3 3 6 6 5 2 7 5 5 9 11 9 10 10 10 8 7 5 5 5 6 6 5 5 6 6 7 7 7 8 8 9 9 11 5 9 9 7 6 10 11 12 12
2 3 2 2 4 3 3 2 3 4 2 4 4 6 7 11 12 11 9 11 9 7 6 6 5 5 4 3 5 5 5 5 6 5 5 7 7 8 9 8 9 7 7 7 8 9 10 10 10
3 4 1 2 2 4 1 2 2 2 7 2 3 3 7 16 15 12 10 9 6 5 5 5 5 4 4 4 3 3 3 3 4 5 5 5 3 4 6 7 9 7 7 7 6 7 7 7 8
3 4 3 2 5 3 5 1 6 4 4 3 3 6 16 16 14 13 10 7 5 5 5 5 5 5 5 3 3 2 1 1 2 2 3 2 3 3 4 5 7 6 5 3 4 4 5 5 3
4 5 3 2 4 5 2 2 0 9 2 5 6 14 15 14 9 12 9 9 8 6 4 6 6 5 5 3 2 1 0 0 1 1 1 2 2 2 2 2 3 3 4 1 1 2 3 3 2
5 5 2 4 6 5 3 4 3 3 1 3 9 15 10 12 9 10 10 8 8 7 7 6 6 5 5 2 3 3 2 1 1 2 0 1 2 3 3 2 3 3 3 2 1 1 1 2 1
4 5 3 2 7 8 5 3 3 3 5 5 12 9 12 10 8 6 9 9 7 7 7 7 6 6 5 4 3 2 2 2 2 2 3 2 2 3 3 3 3 3 4 3 2 1 1 3 4
5 6 2 7 7 7 6 1 1 3 3 7 9 8 8 10 9 4 6 7 8 7 8 6 7 6 5 4 4 3 2 2 2 1 2 2 1 2 2 3 4 4 3 3 2 2 2 3 3
5 5 2 6 5 6 7 4 2 3 3 7 6 5 5 6 8 7 7 7 8 7 6 8 7 6 6 6 5 3 3 2 2 2 1 3 2 2 2 3 4 4 4 4 3 3 1 3 2
5 3 6 4 2 2 3 5 1 6 7 6 6 5 6 9 8 7 7 5 7 6 7 6 5 7 6 5 3 3 3 2 2 2 2 4 4 3 2 3 4 4 3 2 1 2 3 3 3
4 5 11 1 6 2 4 3 1 3 6 6 6 6 6 6 6 5 7 6 7 8 8 7 6 7 6 3 2 2 2 2 2 1 2 3 4 4 2 3 4 4 3 3 2 2 2 3 4
7 5 7 7 5 2 1 5 3 2 6 7 6 6 5 6 8 4 6 5 4 5 6 6 4 5 5 3 3 2 1 2 3 3 3 3 3 4 3 3 4 4 3 4 3 3 3 3 4
11 9 9 4 6 4 5 3 2 1 2 3 3 6 6 6 4 1 2 5 5 5 6 6 6 5 4 2 1 1 3 2 2 3 4 3 3 3 3 3 4 4 3 4 3 2 4 4 1
15 13 6 6 4 4 3 4 1 1 1 2 4 6 7 4 1 5 5 6 6 5 4 4 2 3 3 2 2 1 1 1 1 2 4 4 4 3 3 4 4 4 3 4 4 4 2 3 3
5 16 9 8 6 2 4 5 4 2 3 1 2 3 4 6 5 3 5 6 6 6 6 6 5 4 2 2 1 2 2 2 2 2 3 4 5 5 4 5 4 5 3 4 5 4 5 7 3
5 3 9 17 13 4 3 5 6 7 7 5 6 5 6 5 3 4 5 5 6 4 5 5 6 5 5 6 4 2 1 1 2 2 3 5 6 6 6 6 5 5 3 5 6 5 5 5 8
4 5 9 8 13 6 6 4 2 9 8 10 8 7 6 5 6 6 6 5 5 6 6 5 6 7 6 6 6 4 4 2 2 4 6 5 5 6 6 6 6 6 4 5 7 8 8 6 7
12 11 8 6 2 6 7 10 5 8 13 5 5 7 7 7 6 5 5 5 5 5 6 6 7 6 6 7 7 7 6 5 4 4 4 4 4 4 6 6 5 5 6 7 7 7 8 9 9
2 7 3 2 3 3 2 6 9 7 7 9 15 12 9 8 7 7 7 6 5 6 6 6 7 6 6 7 7 6 6 5 5 4 3 5 4 3 6 5 6 5 6 7 7 8 9 10 10
2 1 5 6 5 2 2 8 7 5 7 9 12 10 8 8 7 7 7 6 6 6 6 6 5 5 6 6 5 5 5 3 2 3 3 4 3 4 5 6 6 7 7 7 7 7 8 9 11
3 2 2 4 1 2 5 7 8 3 5 8 11 11 10 8 7 8 7 6 6 5 6 6 5 4 4 3 3 3 3 4 4 5 3 3 4 5 6 6 7 7 8 8 8 7 9 9 11
0 4 4 1 6 4 4 6 7 6 12 12 14 15 10 9 8 7 7 7 6 5 5 5 4 4 2 2 2 2 2 2 3 4 6 6 6 5 6 7 7 7 8 8 8 8 9 10 10
3 2 3 3 2 3 3 7 2 14 17 19 18 15 12 10 9 8 6 6 6 5 6 5 4 2 1 1 0 1 3 4 4 4 5 6 6 6 7 7 7 8 9 9 9 10 11 11 12
1 2 3 3 4 4 1 8 3 4 12 14 15 11 9 9 8 8 8 8 7 7 6 5 3 2 2 2 2 3 3 4 5 6 6 6 7 7 7 7 8 9 10 10 10 12 11 12 13
Wind_Direction
32 335 157 35 35 68 252 259 78 120 86 340 52 135 121 52 102 157 117 125 119 111 99 101 110 106 102 99 97 91 91 91 66 76 70 75 45 52 58 64 67 58 39 59 57 47 49 55 71
31 338 35 84 112 115 255 275 153 187 144 147 95 69 51 84 66 116 113 120 121 123 116 115 116 111 106 100 98 97 91 77 66 58 55 60 58 51 65 53 51 42 55 55 54 50 50 60 69
7 200 124 158 125 199 205 182 139 100 143 173 100 62 99 95 117 109 121 126 126 118 114 120 118 115 112 107 101 89 78 80 85 65 52 55 48 46 66 55 56 43 65 55 42 51 53 54 59
265 50 13 98 200 245 224 159 144 131 118 63 112 72 68 209 156 138 128 127 119 110 111 114 119 114 109 105 104 100 92 89 85 94 76 54 40 49 62 58 62 63 55 56 47 46 48 48 48
28 331 86 175 233 282 66 151 160 108 96 37 93 135 73 23 124 132 134 139 129 116 115 107 113 116 112 107 106 102 98 92 88 79 73 56 48 43 46 49 56 74 62 47 50 44 46 45 44
143 218 111 192 238 10 85 179 118 74 92 154 83 91 67 131 129 144 141 144 135 135 120 100 95 102 115 116 112 102 90 81 73 67 57 52 42 37 33 38 63 77 65 54 49 49 45 41 37
158 165 192 158 171 126 206 143 123 132 125 125 144 86 118 156 144 141 136 129 127 122 119 118 117 113 107 110 108 98 84 79 74 58 46 38 33 29 30 13 43 89 78 71 41 49 44 37 30
122 137 120 19 175 203 146 84 115 110 71 124 127 155 172 168 150 131 133 116 121 124 130 140 139 134 127 121 120 106 90 78 65 49 48 48 34 24 26 16 3 88 91 90 59 41 33 34 30
225 75 178 27 102 318 28 114 42 38 107 68 16 127 155 140 137 133 122 113 118 132 154 156 152 155 155 155 153 120 105 81 64 56 55 46 27 20 20 8 14 42 60 78 60 24 34 40 24
89 149 157 58 345 353 289 210 148 117 117 60 59 57 123 139 147 138 142 139 146 171 185 183 173 173 174 172 154 176 136 40 48 67 52 46 39 6 11 5 2 6 24 67 62 47 51 40 12
156 175 106 53 352 303 248 129 52 126 207 194 169 147 143 144 156 144 152 165 179 182 186 195 188 189 185 173 175 191 204 47 346 350 54 30 49 28 19 349 341 333 304 337 48 15 7 4 18
94 33 80 42 325 354 315 116 62 39 346 310 151 152 144 154 159 157 155 167 169 184 196 193 191 186 208 178 182 193 194 217 257 249 283 20 7 2 348 341 333 325 295 260 218 299 319 327 12
107 165 102 358 0 345 342 16 169 31 354 90 126 142 155 156 154 177 163 173 166 188 200 198 179 192 195 195 201 200 218 226 273 326 357 22 12 353 342 337 328 318 316 266 230 236 292 322 320
123 115 138 42 8 342 357 350 59 4 83 88 132 143 156 159 167 144 156 174 187 194 204 191 189 186 185 200 205 214 220 232 242 292 300 328 13 339 343 330 318 317 318 315 259 241 270 283 303
126 95 358 42 6 348 326 272 58 144 121 127 146 157 166 180 181 181 176 195 196 198 186 197 185 178 193 203 206 201 227 222 260 266 283 299 300 305 322 312 316 315 321 329 318 287 293 283 278
92 50 174 127 110 217 3 289 84 161 143 164 175 192 198 216 207 196 201 210 204 169 183 176 176 185 196 200 198 202 211 222 264 280 262 261 264 264 298 320 316 312 313 294 262 252 261 255 250
188 182 202 213 172 265 151 280 95 163 170 186 191 200 212 228 245 227 212 207 191 187 168 186 184 186 190 180 148 167 209 211 230 256 258 266 265 262 255 267 276 291 310 309 299 293 242 258 255
152 144 167 178 196 159 276 272 318 317 185 210 207 214 221 229 246 282 240 213 174 157 147 150 162 163 135 134 128 120 183 233 238 246 257 279 294 296 291 295 298 315 319 301 299 277 267 264 287
157 158 153 112 157 152 207 232 265 329 106 134 182 200 198 204 282 314 183 147 130 133 144 168 168 172 151 126 162 205 226 227 261 252 256 263 281 297 288 285 295 298 282 284 274 266 280 279 237
155 160 147 63 109 111 201 230 279 175 203 225 172 163 174 181 98 65 66 62 52 64 69 90 172 189 182 171 191 180 142 19 335 326 310 305 310 296 267 252 259 256 264 274 271 232 265 256 192
166 171 164 152 135 62 130 276 211 193 129 131 220 197 200 190 167 110 87 82 79 70 61 70 58 68 43 266 61 64 47 32 359 338 329 341 334 311 297 287 275 275 260 275 274 255 243 277 237
163 108 160 139 147 201 181 250 223 199 207 208 227 207 220 198 147 126 116 91 101 87 77 74 67 61 42 36 63 80 77 350 30 9 344 339 344 334 330 310 304 290 284 274 275 269 243 256 274
112 149 143 165 157 135 188 262 217 164 213 218 217 211 208 180 146 132 114 100 82 80 83 82 75 55 43 51 52 55 51 28 348 9 357 351 342 347 332 327 312 300 294 282 284 287 277 257 259
122 90 62 55 92 227 175 208 211 192 209 172 191 198 180 165 146 130 119 123 105 80 74 71 77 62 56 63 59 64 59 34 24 355 351 341 336 328 345 336 322 307 293 285 285 284 279 273 270
184 130 96 113 199 236 312 213 256 202 227 197 184 181 175 167 157 158 150 131 107 88 76 74 71 58 50 57 55 50 47 44 27 358 340 338 329 327 336 335 329 314 295 288 285 281 277 275 274
89 19 149 179 193 153 90 237 234 203 203 177 179 165 153 163 173 167 153 138 127 118 111 102 93 81 57 52 43 41 40 42 16 347 332 332 325 310 306 316 314 308 307 303 290 278 273 275 281
142 112 111 98 20 106 210 276 287 129 146 155 162 161 172 172 175 164 156 154 143 144 134 121 106 96 80 73 57 42 25 21 359 340 327 301 300 306 310 309 305 303 297 294 294 287 283 281 283
60 130 116 45 150 227 259 268 245 217 185 179 179 182 175 179 173 166 166 164 168 160 140 127 102 83 69 87 75 49 357 334 326 326 326 316 301 301 306 303 297 293 292 293 292 292 289 288 284
130 136 96 103 155 179 305 259 244 201 188 186 188 185 178 175 180 172 168 173 169 164 161 143 116 110 55 57 117 326 312 324 325 313 298 293 294 291 287 284 288 290 292 293 292 287 287 283 285
193 175 158 125 214 238 245 275 342 261 190 184 185 177 171 176 177 174 174 175 179 187 177 171 172 215 227 238 283 302 306 323 313 305 301 289 282 287 279 284 286 289 287 285 281 283 282 282 286